Tracking 30743 objects as of 21-Jun-2025
HD Live streaming from Space Station
objects crossing your sky now

NOAA 16 DEB

Track NOAA 16 DEB now!
10-day predictions


NORAD ID: 41540
Int'l Code: 2000-055NQ
Perigee: 818.8 km
Apogee: 871.7 km
Inclination: 98.7 °
Period: 101.7 minutes
Semi major axis: 7216 km
RCS: Unknown
Launch date: September 21, 2000
Source: United States (US)
Launch site: AIR FORCE WESTERN TEST RANGE (AFWTR)

Note: This is SATELLITE DEBRIS
Your satellite tracking list
Your tracking list is empty




NASA's NSSDC Master Catalog

Two Line Element Set (TLE):
1 41540U 00055NQ  25171.35556742  .00001975  00000-0  10118-2 0  9992
2 41540  98.7152 211.3069 0036676 133.6030 226.8198 14.16243729472158
Source of the keplerian elements: AFSPC